Starlink 3231

operational
NORAD ID: 49744 Int'l Des: 2021-115 Owner: SPXS Country: US Constellation: starlink
LEOCIRCULAR

Über Starlink 3231

Beschreibung wird geladen...

Live-Position

3D-Globus wird geladen...

Nächste Überflüge

Höhenverlauf

Altitude vs Time

uPlot chart will show altitude changes over time

Zweizeiliger Elementsatz

1 49744U 21115W 26035.11076348 -.00000078 00000-0 13219-4 0 9990
2 49744 53.2196 299.7564 0001564 80.2555 279.8614 15.08833482230463
Epoch: 4. Feb. 2026 • Age: 24 hours

Aktueller Status

Höhe 544.1 km
Geschwindigkeit 7.60 km/s
Subsatellitenpunkt 47.80°N, 173.03°E
Startdatum 2. Dez. 2021
Alter 4.1 years
Typ internet

Technische Details

Klassifizierung Payload
Masse 290.00 kg
Trockenmasse 270.00 kg
Gesamtmasse 290.00 kg
Länge 0.20 m
Durchmesser 2.80 m
Spannweite 9.00 m
Form Box + pan
Hersteller SPXS
Bus-Typ Starlink
Phasenstatus In Orbit
Besitzer/Staat SPXS/US

Große Konstellationen

Loading constellations...